Location: Unspecified
(0.0000°N, 0.0000°E)
Time: 11:22:20
(UTC+00:00)

A-11 Canister half - Pass Details

Date: 24 November 2019
Orbit: 1526 x 1683 km, 47.3° (Epoch: 07 December)

Event Time Altitude Azimuth Distance (km) Brightness Sun altitude
Rises 21:23:29 0° 278° (W) 4,676 12.0 -49.4°
Reaches altitude 10° 21:28:31 10° 255° (WSW) 3,689 11.4 -50.4°
Maximum altitude 21:33:02 14° 225° (SW) 3,352 11.2 -51.4°
Drops below altitude 10° 21:37:36 10° 195° (SSW) 3,703 11.3 -52.3°
Sets 21:42:45 0° 172° (S) 4,706 11.8 -53.3°
